TimeCST,TemperatureF,Dew PointF,Humidity,Sea Level PressureIn,VisibilityMPH,Wind Direction,Wind SpeedMPH,Gust SpeedMPH,PrecipitationIn,Events,Conditions,WindDirDegrees,DateUTC
12:53 AM,34.0,27.0,75,29.59,10.0,WSW,13.8,28.8,N/A,,Overcast,250,2013-12-05 06:53:00
1:53 AM,33.1,25.0,72,29.63,10.0,WSW,13.8,24.2,N/A,,Overcast,250,2013-12-05 07:53:00
2:16 AM,33.8,24.8,70,29.61,10.0,West,13.8,33.4,N/A,,Scattered Clouds,260,2013-12-05 08:16:00
2:53 AM,32.0,23.0,69,29.61,10.0,West,17.3,25.3,N/A,,Partly Cloudy,270,2013-12-05 08:53:00
3:53 AM,30.0,21.0,69,29.69,10.0,West,15.0,25.3,N/A,,Clear,270,2013-12-05 09:53:00
4:34 AM,28.4,21.2,74,29.68,10.0,West,8.1,17.3,N/A,,Mostly Cloudy,270,2013-12-05 10:34:00
4:53 AM,28.9,21.9,75,29.71,10.0,WSW,12.7,18.4,N/A,,Overcast,240,2013-12-05 10:53:00
5:53 AM,27.0,18.0,69,29.77,10.0,WSW,16.1,26.5,N/A,,Overcast,250,2013-12-05 11:53:00
6:53 AM,23.0,14.0,68,29.81,10.0,West,11.5,26.5,N/A,,Scattered Clouds,270,2013-12-05 12:53:00
7:26 AM,21.2,12.2,68,29.80,10.0,WSW,15.0,25.3,N/A,,Mostly Cloudy,250,2013-12-05 13:26:00
7:51 AM,19.4,10.4,68,29.82,10.0,West,12.7,23.0,N/A,,Partly Cloudy,260,2013-12-05 13:51:00
7:53 AM,19.9,10.9,68,29.86,10.0,West,17.3,27.6,N/A,,Partly Cloudy,270,2013-12-05 13:53:00
8:49 AM,19.4,8.6,63,29.86,1.5,West,13.8,26.5,N/A,,Haze,260,2013-12-05 14:49:00
8:53 AM,19.0,8.1,62,29.90,1.5,West,16.1,26.5,N/A,,Haze,270,2013-12-05 14:53:00
9:03 AM,19.4,8.6,63,29.87,10.0,West,17.3,26.5,N/A,,Clear,260,2013-12-05 15:03:00
9:53 AM,19.9,8.1,60,29.93,10.0,West,15.0,25.3,N/A,,Clear,260,2013-12-05 15:53:00
10:53 AM,21.0,8.1,57,29.96,10.0,West,16.1,25.3,N/A,,Clear,260,2013-12-05 16:53:00
11:53 AM,21.9,9.0,58,29.97,10.0,WSW,13.8,28.8,N/A,,Clear,250,2013-12-05 17:53:00
12:53 PM,21.9,8.1,55,29.99,10.0,West,15.0,21.9,N/A,,Clear,270,2013-12-05 18:53:00
1:53 PM,21.0,7.0,55,30.02,10.0,WSW,10.4,20.7,N/A,,Clear,250,2013-12-05 19:53:00
2:53 PM,21.0,5.0,50,30.04,10.0,West,12.7,20.7,N/A,,Clear,260,2013-12-05 20:53:00
3:53 PM,19.9,6.1,55,30.07,10.0,WSW,11.5,17.3,N/A,,Clear,250,2013-12-05 21:53:00
4:53 PM,19.0,5.0,54,30.09,10.0,West,4.6,-,N/A,,Clear,260,2013-12-05 22:53:00
5:53 PM,18.0,5.0,57,30.15,10.0,WSW,9.2,-,N/A,,Clear,250,2013-12-05 23:53:00
6:53 PM,18.0,5.0,57,30.19,10.0,West,11.5,25.3,N/A,,Clear,260,2013-12-06 00:53:00
7:53 PM,16.0,5.0,62,30.22,10.0,West,9.2,-,N/A,,Clear,260,2013-12-06 01:53:00
8:53 PM,15.1,3.9,61,30.25,10.0,West,10.4,18.4,N/A,,Clear,280,2013-12-06 02:53:00
9:53 PM,14.0,3.9,64,30.26,10.0,West,9.2,-,N/A,,Clear,280,2013-12-06 03:53:00
10:53 PM,12.0,1.9,64,30.27,10.0,WNW,12.7,-,N/A,,Clear,300,2013-12-06 04:53:00
11:53 PM,10.9,1.9,67,30.30,10.0,WNW,11.5,-,N/A,,Clear,290,2013-12-06 05:53:00